Regional Weather Roundup
Issued by NWS

Home | Current Version | Previous Version | Graphics & Text | Print | Product List | Glossary On
Versions: 1 2 3 4 5 6 7 8 9 10 11 12 13 14 15 16 17 18 19 20 21 22 23 24 25 26 27 28 29 30 31 32 33 34 35 36 37 38 39 40 41 42 43 44 45 46 47 48 49 50
000
ASUS43 KDMX 072006
RWRIA

WEATHER ROUNDUP FOR IOWA
NATIONAL WEATHER SERVICE DES MOINES IA
200 PM CST WED DEC 07 2016

NOTE: "FAIR" INDICATES FEW OR NO CLOUDS BELOW 12,000 FEET WITH NO
SIGNIFICANT WEATHER AND/OR OBSTRUCTIONS TO VISIBILITY.

* - THESE STATIONS ARE NOT NWS STATIONS...THUS NOT UNDER NWS
QUALITY CONTROL.  THEY ALSO DO NOT REPORT WEATHER SUCH
AS PRECIPITATION OR FOG.

IAZ001>003-012>014-020>022-031>034-043>046-072100-
   NORTHWEST IOWA

CITY           SKY/WX    TMP DP  RH WIND       PRES   REMARKS
CARROLL *      CLOUDY    23  10  58 W20G26    30.23R WCI   8
CHEROKEE *     SUNNY     22   9  57 NW21G29   30.23S WCI   7
DENISON *      MOSUNNY   23  10  58 W17G24    30.24R WCI   9
LE MARS *      SUNNY     21   9  58 W21       30.27R WCI   6
ORANGE CITY *  SUNNY     21   9  58 NW25G35   30.21S WCI   4
SHELDON *      SUNNY     21   9  58 W22G32    30.17F WCI   5
SIOUX CITY     SUNNY     24   7  48 NW17G25   30.28S WCI  11
SPENCER        MOSUNNY   22   9  57 NW32G39   30.17S WCI   3
STORM LAKE *   SUNNY     21  10  63 W24       30.19S WCI   4
$$

IAZ055>058-069>071-079>083-090>094-072100-
   SOUTHWEST IOWA

CITY           SKY/WX    TMP DP  RH WIND       PRES   REMARKS
ATLANTIC *     CLOUDY    23  10  58 NW14G21   30.28S WCI  11
AUDUBON *      PTSUNNY   21  10  63 W12G20    30.25R WCI   9
CLARINDA *     CLOUDY    23  10  58 NW18      30.33R WCI   9
COUNCIL BLFS * CLOUDY    23   9  54 NW15      30.29S WCI  10
CRESTON *      MOSUNNY   23   9  54 W18G24    30.26R WCI   9
HARLAN  *      PTSUNNY   23  10  58 NW16G24   30.31R WCI  10
LAMONI         CLOUDY    24  12  60 NW17      30.25S WCI  11
RED OAK *      CLOUDY    23  10  58 NW14G22   30.31S WCI  11
SHENANDOAH *   CLOUDY    25  10  54 W14G20    30.33S WCI  13
$$

IAZ047>049-059>061-072>074-084-072100-
   CENTRAL IOWA

CITY           SKY/WX    TMP DP  RH WIND       PRES   REMARKS
AMES           MOSUNNY   23  13  65 W17       30.20S WCI   9
ANKENY *       MOSUNNY   23  10  58 W17G25    30.24R WCI   9
BOONE *        MOSUNNY   21  10  63 W17G24    30.18S WCI   7
CHARITON *     PTSUNNY   27  12  54 NW14      30.23R WCI  15
DES MOINES     CLOUDY    25  10  53 NW23      30.23S WCI  10
GRINNELL*      MOSUNNY   23  14  68 W17       30.19S WCI  10
KNOXVILLE *    PTSUNNY   25  10  54 W16       30.21S WCI  12
MARSHALLTOWN   MOSUNNY   24  13  62 W21       30.16S WCI   9
NEWTON *       CLOUDY    23  12  63 W18       30.20S WCI   9
PELLA *        CLOUDY    25  12  57 W14       30.23S WCI  14
PERRY *          N/A     23  14  66 W23G31    30.23S WCI   8
$$

IAZ004>006-015-016-023>025-035-036-072100-
   NORTH CENTRAL IOWA

CITY           SKY/WX    TMP DP  RH WIND       PRES   REMARKS
ALGONA *       CLOUDY    23  12  63 W26       30.15S WCI   6
CLARION *      MOSUNNY   23  12  63 W24G32    30.15S WCI   7
ESTHERVILLE    PTSUNNY   21  11  65 NW28G37   30.14S WCI   3
FORT DODGE *   MOSUNNY   23  10  58 W16G25    30.19S WCI  10
MASON CITY     MOSUNNY   22  11  62 W25G33    30.13R WCI   5
FOREST CITY *  PTSUNNY   23  12  63 W24G30    30.12S WCI   7
WEBSTER CITY * MOSUNNY   23  12  63 W23       30.16S WCI   7
IOWA FALLS *     N/A     24  15  68 W24       30.16S WCI   9
$$

IAZ007>011-017>019-026>030-037>042-050>054-066-072100-
   NORTHEAST IOWA

CITY           SKY/WX    TMP DP  RH WIND       PRES   REMARKS
CEDAR RAPIDS   CLOUDY    22  16  78 W18       30.16R WCI   7
CHARLES CITY * CLOUDY    21  14  73 NW20      30.11S WCI   6
CLINTON *      MOSUNNY   25  18  74 W22       30.15R WCI  10
DECORAH *      FLURRIES  18  12  79 W13G21    30.07S WCI   4
DUBUQUE        CLOUDY    19  12  74 W15       30.10R WCI   5
MONTICELLO *   CLOUDY    21  14  73 W14       30.13S WCI   8
OELWEIN *      CLOUDY    19  14  79 W17       30.12S WCI   4
WATERLOO       MOSUNNY   23  13  65 W16       30.13F WCI  10
$$

IAZ064-065-067-068-078-072100-
   EAST CENTRAL IOWA

CITY           SKY/WX    TMP DP  RH WIND       PRES   REMARKS
DAVENPORT      SUNNY     27  17  66 W20       30.16R WCI  13
IOWA CITY      CLOUDY    26  15  63 W17G24    30.20R WCI  13
MUSCATINE *    SUNNY     28  16  59 W15       30.20S WCI  17
QUAD CITIES    MOSUNNY   28  16  60 W15G23    30.17R WCI  16
$$

IAZ062-063-075>077-085>089-095>099-072100-
   SOUTHEAST IOWA

CITY           SKY/WX    TMP DP  RH WIND       PRES   REMARKS
BURLINGTON     PTSUNNY   30  15  53 NW10      30.19S WCI  21
FAIRFIELD *    CLOUDY    27  12  54 W15G23    30.21R WCI  15
FORT MADISON * MOSUNNY   28  16  59 W12       30.21S WCI  18
KEOKUK *       CLOUDY    30  16  55 W14       30.21S WCI  20
OSKALOOSA *      N/A     26  14  61 W20       30.22S WCI  12
CENTERVILLE *    N/A     27  14  59 W16       30.24S WCI  14
OTTUMWA        MOSUNNY   27  12  53 W13       30.21F WCI  16
WASHINGTON *   MOSUNNY   27  16  63 W17       30.21S WCI  14
$$

ABBREVIATIONS USED IN REMARKS
   TC - TEMPERATURES IN CELSIUS
  WCI - WIND CHILL INDEX
   HX - HEAT INDEX
  VSB - VISIBILITY
$$





USA.gov is the U.S. government's official web portal to all federal, state and local government web resources and services.